SAOCOM 1A (43641 NORAD) Tracking and Keplerian Element Data

This shows tracking and keplerian element data for the satellite.

Feedback or suggestion? Click here.




ElementValue
Catalog43641
NameSAOCOM 1A
Epoch Orbit34233
Epoch Day35.17817883
Epoch Year2025
RAAN224.0613
Inclination97.8865
Eccentricity0.0001368
Argument of Perigee88.6961
Mean Anonmoly271.4409
Mean Motion14.82170907
Decay Rate1.24E-05
L11 43641U 18076A 25035.17817883 .00001240 00000+0 16229-3 0 9997
L22 43641 97.8865 224.0613 0001368 88.6961 271.4409 14.82170907342338



Live tracking and technical data element details for SAOCOM 1A (NORAD 43641). SAOCOM 1A can be tracked NOW for your location showing map with azimuth and elevation plus other details from your city location.







IsCatalogInMostPopularTable: catalog: 43641, numindb: 660
Update: records affected: 1



GetName: 43641 SAOCOM 1A

Hit Count: updated at: Wed, 30 Apr 2025 17:02:30 GMT